NOAA 16 DEB, 41705

Orbit data source: Space-Track

NOAA 16 DEB, 41705 is space debris in SSO originally from a launch on Thu, 21 Sep 2000 UTC launched from the Air Force Western Test Range (AFWTR). Debris objects in space refer to the collection of defunct objects orbiting the Earth. Examples of debris include non-operational satellites, rocket bodies, and fragments generated from explosions, collisions, or faulty payload assembly.

Loading next visibility...
Identifier
41705, 2000-055PK
Orbit
SSO
Country
Flag of USUS
Related business
Manufacturer
Unknown
Mission
Spacecraft
Bus & Motor
Unknown
Mass
Unknown
Launch date (UTC)
2000-09-21 (25 years ago)
Launch vehicle
Unknown
Launch site
Air Force Western Test Range (AFWTR)
Object type
Payload
Rocket body
Debris
Shape & HBR
Unknown shape, 0.1 m
Radar Cross Section
Small (<0.1 m²)

Expand to show TLE details & history
Last TLE update: 4 days ago

TLE from 4 days ago
0 NOAA 16 DEB
1 41705U 00055PK  26033.43579425  .00001323  00000-0  62245-3 0  9991
2 41705  98.6362 107.5031 0013464 289.1043  70.8677 14.21609004506480
Epoch: 2026-02-02T10:27Z
TLE epoch observation values (Epoch: 2026-02-02T10:27:32.623Z)
Latitude
0.00005°
Longitude
177.98605°
Altitude
819.67 km
Speed
7.445 km/s
True Right ascension
07h 10m 00s
True Declination
0° 00' 00"
Sunlit
Object was in full shadow at epoch
Visualization orbit readout
Latitude
Unknown
Longitude
Unknown
Altitude
Unknown
Speed
Unknown
Apparent Right ascension
Unknown
Apparent Declination
Unknown
Sunlit
N/A
Visualization observer readout
Local Sidereal Time
16:44:00
Azimuth
Unknown
Elevation
Unknown
Doppler factor
Unknown
Orbital elements
Apogee altitude
826.757 km
Perigee altitude
807.382 km
Semi-major axis
7,195.206 km
Eccentricity
0.00135
Inclination
98.6362°
RAAN
107.5031°
Arg. of periapsis
289.1043°
True anomaly
71.01354°
Mean anomaly
70.8677°
Eccentric anomaly
70.94061°
Mean motion
3.55614 °/min
Orbital period
101.23 mins
BSTAR
0.00062245
Loading maneuver chart data...
Computing Atmospheric mass density...
Loading historical data...
Loading historical data...
Loading historical data...
Loading historical data...
Loading historical data...
Loading historical data...
Loading historical data...

Documentation

Showing up to 5 results
|